Date String (YYYY-MM-DD hh:mm:ss) UTC,Instrument flags,absolute air pressure of the measurement (hPa),sample flow rate (lpm),inlet stack bypass flow (lpm),air temperature of the measurement (°C),ambient temperature measured by the external sensor (°C),aerosol sample conditioner tube jacket temperature (°C),OPC LED temperature (°C),internal box temperature (°C),relative humidity of the measurement (%),span deviation,mass concentration of particles derived from Lorenz-Mie calculation of OPC scattering (μg/m³),mass concentration of particles derived from Lorenz-Mie calculation of OPC scattering (μg/m³),mass concentration of particles derived from Lorenz-Mie calculation of OPC scattering (μg/m³)
DateTimeUTC,F1_M11,P_M11,Q1_M11,Q2_M11,T1_M11,T2_M11,T3_M11,T4_M11,T5_M11,U1_M11,ZSPAN_M11,X0_M11,X2_M11,X1_M11
2024-04-08 03:00:00,SystemResetWarning,0823.0,5.00,000.00,018.7,017.9,000.0,027.2,020.3,011.9,0000.0,0003.18,0001.55,0000.97
2024-04-08 03:01:00,SystemResetWarning,0823.1,4.99,000.00,018.7,017.9,000.0,027.2,020.3,011.9,0000.0,0003.02,0001.54,0000.96
2024-04-08 03:02:00,SystemResetWarning,0823.2,4.99,000.00,018.7,017.9,000.0,027.2,020.3,011.9,0000.0,0003.06,0001.54,0000.95
2024-04-08 03:03:00,SystemResetWarning,0822.9,5.00,000.00,018.7,017.9,000.0,027.2,020.3,011.8,0000.0,0003.12,0001.54,0000.94
2024-04-08 03:04:00,SystemResetWarning,0823.0,5.00,000.00,018.6,017.9,000.0,027.2,020.2,011.7,0000.0,0003.10,0001.53,0000.94
2024-04-08 03:05:00,SystemResetWarning,0823.1,5.00,000.00,018.6,017.8,000.0,027.1,020.2,011.8,0000.0,0003.08,0001.55,0000.94
2024-04-08 03:06:00,SystemResetWarning,0823.0,5.01,000.00,018.6,017.8,000.0,027.1,020.2,011.9,0000.0,0003.25,0001.53,0000.94
2024-04-08 03:07:00,SystemResetWarning,0823.1,5.00,000.00,018.6,017.8,000.0,027.1,020.2,011.9,0000.0,0004.12,0001.57,0000.95
2024-04-08 03:08:00,SystemResetWarning,0823.0,5.01,000.00,018.6,017.8,000.0,027.1,020.2,011.9,0000.0,0004.44,0001.62,0000.95
2024-04-08 03:09:00,SystemResetWarning,0823.2,5.00,000.00,018.6,017.8,000.0,027.1,020.2,011.9,0000.0,0004.53,0001.62,0000.96
2024-04-08 03:10:00,SystemResetWarning,0823.2,4.99,000.00,018.6,017.8,000.0,027.1,020.2,012.0,0000.0,0004.40,0001.58,0000.96
2024-04-08 03:11:00,SystemResetWarning,0823.3,4.99,000.00,018.6,017.8,000.0,027.1,020.2,012.0,0000.0,0004.30,0001.57,0000.95
2024-04-08 03:12:00,SystemResetWarning,0823.3,5.00,000.00,018.6,017.8,000.0,027.1,020.2,011.9,0000.0,0004.30,0001.60,0000.95
2024-04-08 03:13:00,SystemResetWarning,0823.3,5.00,000.00,018.5,017.8,000.0,027.1,020.2,011.9,0000.0,0004.17,0001.60,0000.96
2024-04-08 03:14:00,SystemResetWarning,0823.2,5.01,000.00,018.5,017.8,000.0,027.1,020.1,012.0,0000.0,0004.15,0001.60,0000.97
2024-04-08 03:15:00,SystemResetWarning,0823.3,5.01,000.00,018.5,017.8,000.0,027.0,020.1,012.0,0000.0,0004.09,0001.58,0000.97
2024-04-08 03:16:00,SystemResetWarning,0823.4,4.99,000.00,018.5,017.7,000.0,027.0,020.1,012.0,0000.0,0004.12,0001.59,0000.96
2024-04-08 03:17:00,SystemResetWarning,0823.4,4.98,000.00,018.5,017.7,000.0,027.0,020.1,011.8,0000.0,0004.22,0001.62,0000.97
2024-04-08 03:18:00,SystemResetWarning,0823.4,5.00,000.00,018.5,017.7,000.0,027.0,020.1,011.9,0000.0,0003.64,0001.62,0000.97
2024-04-08 03:19:00,SystemResetWarning,0823.5,5.01,000.00,018.5,017.7,000.0,027.0,020.1,012.0,0000.0,0003.27,0001.55,0000.96
2024-04-08 03:20:00,SystemResetWarning,0823.5,5.00,000.00,018.4,017.7,000.0,027.0,020.0,012.0,0000.0,0003.06,0001.53,0000.95
2024-04-08 03:21:00,SystemResetWarning,0823.5,5.00,000.00,018.4,017.7,000.0,027.0,020.0,012.0,0000.0,0003.15,0001.54,0000.95
2024-04-08 03:22:00,SystemResetWarning,0823.6,5.00,000.00,018.4,017.7,000.0,027.0,020.0,012.0,0000.0,0003.22,0001.56,0000.97
2024-04-08 03:23:00,SystemResetWarning,0823.6,5.00,000.00,018.4,017.6,000.0,027.0,020.0,012.1,0000.0,0003.10,0001.51,0000.98
2024-04-08 03:24:00,SystemResetWarning,0823.6,5.00,000.00,018.4,017.6,000.0,026.9,020.0,012.2,0000.0,0003.00,0001.47,0000.98
2024-04-08 03:25:00,SystemResetWarning,0823.6,5.00,000.00,018.4,017.7,000.0,026.9,020.0,012.2,0000.0,0002.98,0001.46,0000.97
2024-04-08 03:26:00,SystemResetWarning,0823.6,5.00,000.00,018.4,017.7,000.0,026.9,020.0,012.2,0000.0,0002.99,0001.46,0000.97
2024-04-08 03:27:00,SystemResetWarning,0823.7,4.99,000.00,018.4,017.7,000.0,026.9,020.0,012.2,0000.0,0002.98,0001.45,0000.98
2024-04-08 03:28:00,SystemResetWarning,0823.7,5.00,000.00,018.4,017.7,000.0,026.9,020.1,012.3,0000.0,0002.85,0001.47,0000.99
2024-04-08 03:29:00,SystemResetWarning,0823.6,5.00,000.00,018.4,017.7,000.0,026.9,020.0,012.3,0000.0,0002.38,0001.42,0000.98
2024-04-08 03:30:00,SystemResetWarning,0823.6,5.00,000.00,018.4,017.7,000.0,026.9,020.0,012.4,0000.0,0002.43,0001.44,0000.98
2024-04-08 03:31:00,SystemResetWarning,0823.6,5.00,000.00,018.4,017.7,000.0,026.9,020.0,012.4,0000.0,0002.38,0001.41,0000.97
2024-04-08 03:32:00,SystemResetWarning,0823.7,5.00,000.00,018.4,017.7,000.0,026.9,020.0,012.5,0000.0,0002.33,0001.41,0000.97
2024-04-08 03:33:00,SystemResetWarning,0823.7,5.00,000.00,018.4,017.7,000.0,026.9,020.0,012.6,0000.0,0002.34,0001.43,0000.97
2024-04-08 03:34:00,SystemResetWarning,0823.8,5.00,000.00,018.4,017.7,000.0,026.9,020.0,012.6,0000.0,0003.08,0001.44,0000.97
2024-04-08 03:35:00,SystemResetWarning,0823.8,5.00,000.00,018.4,017.7,000.0,026.9,020.0,012.6,0000.0,0003.61,0001.45,0000.97
2024-04-08 03:36:00,SystemResetWarning,0823.8,5.00,000.00,018.4,017.7,000.0,026.9,020.0,012.6,0000.0,0003.73,0001.50,0000.97
2024-04-08 03:37:00,SystemResetWarning,0823.8,5.00,000.00,018.4,017.7,000.0,026.9,020.0,012.6,0000.0,0003.77,0001.52,0000.97
2024-04-08 03:38:00,SystemResetWarning,0823.8,5.00,000.00,018.4,017.7,000.0,026.8,020.0,012.6,0000.0,0003.74,0001.50,0000.96
2024-04-08 03:39:00,SystemResetWarning,0823.8,5.00,000.00,018.4,017.7,000.0,026.8,020.0,012.7,0000.0,0003.67,0001.48,0000.96
2024-04-08 03:40:00,SystemResetWarning,0823.8,5.00,000.00,018.3,017.7,000.0,026.8,020.0,012.7,0000.0,0003.71,0001.47,0000.96
2024-04-08 03:41:00,SystemResetWarning,0823.8,5.00,000.00,018.3,017.7,000.0,026.8,020.0,012.7,0000.0,0004.34,0001.49,0000.96
2024-04-08 03:42:00,SystemResetWarning,0823.8,5.00,000.00,018.3,017.7,000.0,026.8,020.0,012.7,0000.0,0004.47,0001.53,0000.96
2024-04-08 03:43:00,SystemResetWarning,0823.8,5.00,000.00,018.3,017.7,000.0,026.8,020.0,012.7,0000.0,0004.71,0001.54,0000.96
2024-04-08 03:44:00,SystemResetWarning,0823.7,5.00,000.00,018.3,017.7,000.0,026.8,020.0,012.7,0000.0,0005.31,0001.56,0000.95
2024-04-08 03:45:00,SystemResetWarning,0823.7,5.00,000.00,018.3,017.7,000.0,026.8,020.0,012.7,0000.0,0004.74,0001.58,0000.93
2024-04-08 03:46:00,SystemResetWarning,0823.7,5.00,000.00,018.3,017.7,000.0,026.8,020.0,012.7,0000.0,0004.33,0001.62,0000.94
2024-04-08 03:47:00,SystemResetWarning,0823.6,5.00,000.00,018.4,017.7,000.0,026.8,020.0,012.7,0000.0,0004.21,0001.57,0000.93
2024-04-08 03:48:00,SystemResetWarning,0823.6,5.00,000.00,018.3,017.7,000.0,026.8,020.0,012.7,0000.0,0004.17,0001.55,0000.93
2024-04-08 03:49:00,SystemResetWarning,0823.6,5.00,000.00,018.4,017.7,000.0,026.8,020.0,012.8,0000.0,0004.13,0001.52,0000.92
2024-04-08 03:50:00,SystemResetWarning,0823.6,5.00,000.00,018.4,017.7,000.0,026.8,020.0,012.8,0000.0,0004.01,0001.48,0000.92
2024-04-08 03:51:00,SystemResetWarning,0823.6,5.00,000.00,018.3,017.7,000.0,026.8,020.0,012.8,0000.0,0004.01,0001.49,0000.91
2024-04-08 03:52:00,SystemResetWarning,0823.6,5.00,000.00,018.3,017.7,000.0,026.8,020.0,012.9,0000.0,0003.52,0001.46,0000.91
2024-04-08 03:53:00,SystemResetWarning,0823.4,5.00,000.00,018.3,017.7,000.0,026.8,020.0,012.7,0000.0,0003.34,0001.45,0000.90
2024-04-08 03:54:00,SystemResetWarning,0823.5,5.01,000.00,018.3,017.7,000.0,026.8,020.0,012.4,0000.0,0003.19,0001.45,0000.90
2024-04-08 03:55:00,SystemResetWarning,0823.5,5.01,000.00,018.3,017.7,000.0,026.8,020.0,012.6,0000.0,0002.69,0001.43,0000.90
2024-04-08 03:56:00,SystemResetWarning,0823.4,5.00,000.00,018.3,017.7,000.0,026.8,020.0,012.7,0000.0,0003.38,0001.42,0000.92
2024-04-08 03:57:00,SystemResetWarning,0823.5,4.98,000.00,018.3,017.7,000.0,026.8,020.0,012.4,0000.0,0003.70,0001.41,0000.92
2024-04-08 03:58:00,SystemResetWarning,0823.5,5.00,000.00,018.3,017.6,000.0,026.8,020.0,012.4,0000.0,0003.70,0001.41,0000.92
2024-04-08 03:59:00,SystemResetWarning,0823.5,5.01,000.00,018.3,017.6,000.0,026.9,020.0,012.5,0000.0,0003.73,0001.42,0000.92
